#datetime,building,power
2023-05-14T00:00:00,mcc,45.78
2023-05-14T00:01:00,mcc,47.79
2023-05-14T00:02:00,mcc,50.12
2023-05-14T00:03:00,mcc,48.42
2023-05-14T00:04:00,mcc,60.31
2023-05-14T00:05:00,mcc,60.77
2023-05-14T00:06:00,mcc,63.57
2023-05-14T00:07:00,mcc,64.48
2023-05-14T00:08:00,mcc,63.23
2023-05-14T00:09:00,mcc,62.02
2023-05-14T00:10:00,mcc,62.01
2023-05-14T00:11:00,mcc,61.11
2023-05-14T00:12:00,mcc,58.87
2023-05-14T00:13:00,mcc,66.02
2023-05-14T00:14:00,mcc,49.76
2023-05-14T00:15:00,mcc,53.59
2023-05-14T00:16:00,mcc,51.35
2023-05-14T00:17:00,mcc,66.74
2023-05-14T00:18:00,mcc,48.41
2023-05-14T00:19:00,mcc,52.47
2023-05-14T00:20:00,mcc,49.98
2023-05-14T00:21:00,mcc,49.70
2023-05-14T00:22:00,mcc,49.76
2023-05-14T00:23:00,mcc,51.10
2023-05-14T00:24:00,mcc,50.65
2023-05-14T00:25:00,mcc,48.04
2023-05-14T00:26:00,mcc,48.32
2023-05-14T00:27:00,mcc,50.14
2023-05-14T00:28:00,mcc,42.17
2023-05-14T00:29:00,mcc,42.80
2023-05-14T00:30:00,mcc,43.44
2023-05-14T00:31:00,mcc,45.87
2023-05-14T00:32:00,mcc,40.08
2023-05-14T00:33:00,mcc,50.02
2023-05-14T00:34:00,mcc,40.82
2023-05-14T00:35:00,mcc,44.49
2023-05-14T00:36:00,mcc,42.75
2023-05-14T00:37:00,mcc,41.77
2023-05-14T00:38:00,mcc,40.58
2023-05-14T00:39:00,mcc,42.20
2023-05-14T00:40:00,mcc,39.62
2023-05-14T00:41:00,mcc,37.18
2023-05-14T00:42:00,mcc,38.39
2023-05-14T00:43:00,mcc,39.23
2023-05-14T00:44:00,mcc,37.65
2023-05-14T00:45:00,mcc,36.11
2023-05-14T00:46:00,mcc,36.09
2023-05-14T00:47:00,mcc,39.93
2023-05-14T00:48:00,mcc,38.04
2023-05-14T00:49:00,mcc,37.92
2023-05-14T00:50:00,mcc,38.60
2023-05-14T00:51:00,mcc,39.53
2023-05-14T00:52:00,mcc,37.13
2023-05-14T00:53:00,mcc,36.38
2023-05-14T00:54:00,mcc,45.04
2023-05-14T00:55:00,mcc,38.76
2023-05-14T00:56:00,mcc,37.46
2023-05-14T00:57:00,mcc,39.78
2023-05-14T00:58:00,mcc,41.79
2023-05-14T00:59:00,mcc,42.53
2023-05-14T01:00:00,mcc,41.30
2023-05-14T01:01:00,mcc,40.28
2023-05-14T01:02:00,mcc,50.14
2023-05-14T01:03:00,mcc,53.83
2023-05-14T01:04:00,mcc,52.00
2023-05-14T01:05:00,mcc,51.37
2023-05-14T01:06:00,mcc,39.83
2023-05-14T01:07:00,mcc,42.49
2023-05-14T01:08:00,mcc,40.32
2023-05-14T01:09:00,mcc,37.98
2023-05-14T01:10:00,mcc,37.07
2023-05-14T01:11:00,mcc,38.61
2023-05-14T01:12:00,mcc,36.95
2023-05-14T01:13:00,mcc,37.59
2023-05-14T01:14:00,mcc,39.26
2023-05-14T01:15:00,mcc,47.59
2023-05-14T01:16:00,mcc,39.49
2023-05-14T01:17:00,mcc,39.37
2023-05-14T01:18:00,mcc,39.12
2023-05-14T01:19:00,mcc,36.80
2023-05-14T01:20:00,mcc,36.83
2023-05-14T01:21:00,mcc,35.17
2023-05-14T01:22:00,mcc,40.03
2023-05-14T01:23:00,mcc,37.02
2023-05-14T01:24:00,mcc,38.73
2023-05-14T01:25:00,mcc,37.63
2023-05-14T01:26:00,mcc,37.74
2023-05-14T01:27:00,mcc,36.57
2023-05-14T01:28:00,mcc,35.60
2023-05-14T01:29:00,mcc,37.15
2023-05-14T01:30:00,mcc,38.73
2023-05-14T01:31:00,mcc,42.35
2023-05-14T01:32:00,mcc,42.40
2023-05-14T01:33:00,mcc,42.55
2023-05-14T01:34:00,mcc,43.50
2023-05-14T01:35:00,mcc,49.05
2023-05-14T01:36:00,mcc,40.59
2023-05-14T01:37:00,mcc,41.19
2023-05-14T01:38:00,mcc,43.62
2023-05-14T01:39:00,mcc,38.48
2023-05-14T01:40:00,mcc,39.20
2023-05-14T01:41:00,mcc,40.64
2023-05-14T01:42:00,mcc,42.64
2023-05-14T01:43:00,mcc,40.19
2023-05-14T01:44:00,mcc,39.73
2023-05-14T01:45:00,mcc,38.99
2023-05-14T01:46:00,mcc,41.39
2023-05-14T01:47:00,mcc,38.62
2023-05-14T01:48:00,mcc,39.00
2023-05-14T01:49:00,mcc,40.55
2023-05-14T01:50:00,mcc,39.72
2023-05-14T01:51:00,mcc,40.64
2023-05-14T01:52:00,mcc,40.95
2023-05-14T01:53:00,mcc,38.65
2023-05-14T01:54:00,mcc,47.56
2023-05-14T01:55:00,mcc,39.17
2023-05-14T01:56:00,mcc,39.10
2023-05-14T01:57:00,mcc,40.83
2023-05-14T01:58:00,mcc,41.55
2023-05-14T01:59:00,mcc,44.12
2023-05-14T02:00:00,mcc,43.86
2023-05-14T02:01:00,mcc,43.57
2023-05-14T02:02:00,mcc,41.49
2023-05-14T02:03:00,mcc,42.59
2023-05-14T02:04:00,mcc,42.53
2023-05-14T02:05:00,mcc,42.86
2023-05-14T02:06:00,mcc,43.22
2023-05-14T02:07:00,mcc,42.90
2023-05-14T02:08:00,mcc,38.43
2023-05-14T02:09:00,mcc,38.08
2023-05-14T02:10:00,mcc,41.89
2023-05-14T02:11:00,mcc,38.66
2023-05-14T02:12:00,mcc,39.85
2023-05-14T02:13:00,mcc,39.31
2023-05-14T02:14:00,mcc,41.13
2023-05-14T02:15:00,mcc,39.56
2023-05-14T02:16:00,mcc,38.36
2023-05-14T02:17:00,mcc,37.70
2023-05-14T02:18:00,mcc,40.05
2023-05-14T02:19:00,mcc,37.85
2023-05-14T02:20:00,mcc,37.58
2023-05-14T02:21:00,mcc,36.65
2023-05-14T02:22:00,mcc,37.75
2023-05-14T02:23:00,mcc,39.09
2023-05-14T02:24:00,mcc,36.30
2023-05-14T02:25:00,mcc,37.94
2023-05-14T02:26:00,mcc,35.18
2023-05-14T02:27:00,mcc,36.11
2023-05-14T02:28:00,mcc,36.07
2023-05-14T02:29:00,mcc,35.60
2023-05-14T02:30:00,mcc,35.20
2023-05-14T02:31:00,mcc,34.40
2023-05-14T02:32:00,mcc,34.34
2023-05-14T02:33:00,mcc,34.42
2023-05-14T02:34:00,mcc,37.29
2023-05-14T02:35:00,mcc,35.97
2023-05-14T02:36:00,mcc,36.64
2023-05-14T02:37:00,mcc,35.63
2023-05-14T02:38:00,mcc,41.19
2023-05-14T02:39:00,mcc,39.51
2023-05-14T02:40:00,mcc,38.92
2023-05-14T02:41:00,mcc,40.72
2023-05-14T02:42:00,mcc,41.69
2023-05-14T02:43:00,mcc,38.65
2023-05-14T02:44:00,mcc,38.70
2023-05-14T02:45:00,mcc,37.46
2023-05-14T02:46:00,mcc,38.91
2023-05-14T02:47:00,mcc,39.37
2023-05-14T02:48:00,mcc,36.57
2023-05-14T02:49:00,mcc,35.40
2023-05-14T02:50:00,mcc,34.95
2023-05-14T02:51:00,mcc,32.83
2023-05-14T02:52:00,mcc,32.97
2023-05-14T02:53:00,mcc,34.62
2023-05-14T02:54:00,mcc,42.87
2023-05-14T02:55:00,mcc,36.67
2023-05-14T02:56:00,mcc,37.25
2023-05-14T02:57:00,mcc,35.45
2023-05-14T02:58:00,mcc,36.71
2023-05-14T02:59:00,mcc,34.43
2023-05-14T03:00:00,mcc,35.04
2023-05-14T03:01:00,mcc,35.40
2023-05-14T03:02:00,mcc,37.82
2023-05-14T03:03:00,mcc,36.96
2023-05-14T03:04:00,mcc,36.20
2023-05-14T03:05:00,mcc,37.32
2023-05-14T03:06:00,mcc,38.48
2023-05-14T03:07:00,mcc,35.91
2023-05-14T03:08:00,mcc,36.74
2023-05-14T03:09:00,mcc,37.69
2023-05-14T03:10:00,mcc,40.61
2023-05-14T03:11:00,mcc,40.79
2023-05-14T03:12:00,mcc,42.05
2023-05-14T03:13:00,mcc,41.90
2023-05-14T03:14:00,mcc,52.19
2023-05-14T03:15:00,mcc,38.36
2023-05-14T03:16:00,mcc,38.24
2023-05-14T03:17:00,mcc,38.09
2023-05-14T03:18:00,mcc,36.17
2023-05-14T03:19:00,mcc,36.13
2023-05-14T03:20:00,mcc,37.28
2023-05-14T03:21:00,mcc,36.52
2023-05-14T03:22:00,mcc,37.59
2023-05-14T03:23:00,mcc,34.14
2023-05-14T03:24:00,mcc,33.57
2023-05-14T03:25:00,mcc,34.28
2023-05-14T03:26:00,mcc,36.00
2023-05-14T03:27:00,mcc,34.01
2023-05-14T03:28:00,mcc,34.69
2023-05-14T03:29:00,mcc,35.41
2023-05-14T03:30:00,mcc,36.58
2023-05-14T03:31:00,mcc,34.00
2023-05-14T03:32:00,mcc,33.46
2023-05-14T03:33:00,mcc,32.72
2023-05-14T03:34:00,mcc,34.69
2023-05-14T03:35:00,mcc,40.88
2023-05-14T03:36:00,mcc,35.50
2023-05-14T03:37:00,mcc,37.79
2023-05-14T03:38:00,mcc,42.55
2023-05-14T03:39:00,mcc,39.52
2023-05-14T03:40:00,mcc,40.74
2023-05-14T03:41:00,mcc,38.46
2023-05-14T03:42:00,mcc,48.63
2023-05-14T03:43:00,mcc,44.15
2023-05-14T03:44:00,mcc,45.66
2023-05-14T03:45:00,mcc,45.38
2023-05-14T03:46:00,mcc,40.36
2023-05-14T03:47:00,mcc,37.90
2023-05-14T03:48:00,mcc,36.67
2023-05-14T03:49:00,mcc,35.02
2023-05-14T03:50:00,mcc,35.98
2023-05-14T03:51:00,mcc,36.81
2023-05-14T03:52:00,mcc,34.89
2023-05-14T03:53:00,mcc,37.06
2023-05-14T03:54:00,mcc,38.47
2023-05-14T03:55:00,mcc,36.05
2023-05-14T03:56:00,mcc,34.46
2023-05-14T03:57:00,mcc,33.83
2023-05-14T03:58:00,mcc,35.41
2023-05-14T03:59:00,mcc,33.53
2023-05-14T04:00:00,mcc,34.81
2023-05-14T04:01:00,mcc,35.21
2023-05-14T04:02:00,mcc,38.44
2023-05-14T04:03:00,mcc,36.81
2023-05-14T04:04:00,mcc,37.40
2023-05-14T04:05:00,mcc,38.23
2023-05-14T04:06:00,mcc,39.06
2023-05-14T04:07:00,mcc,35.23
2023-05-14T04:08:00,mcc,36.37
2023-05-14T04:09:00,mcc,36.95
2023-05-14T04:10:00,mcc,40.69
2023-05-14T04:11:00,mcc,39.51
2023-05-14T04:12:00,mcc,38.52
2023-05-14T04:13:00,mcc,37.59
2023-05-14T04:14:00,mcc,39.47
2023-05-14T04:15:00,mcc,44.98
2023-05-14T04:16:00,mcc,37.20
2023-05-14T04:17:00,mcc,38.80
2023-05-14T04:18:00,mcc,41.45
2023-05-14T04:19:00,mcc,38.83
2023-05-14T04:20:00,mcc,38.85
2023-05-14T04:21:00,mcc,36.46
2023-05-14T04:22:00,mcc,40.50
2023-05-14T04:23:00,mcc,37.18
2023-05-14T04:24:00,mcc,37.88
2023-05-14T04:25:00,mcc,34.86
2023-05-14T04:26:00,mcc,36.67
2023-05-14T04:27:00,mcc,37.93
2023-05-14T04:28:00,mcc,37.41
2023-05-14T04:29:00,mcc,37.64
2023-05-14T04:30:00,mcc,38.08
2023-05-14T04:31:00,mcc,36.78
2023-05-14T04:32:00,mcc,36.34
2023-05-14T04:33:00,mcc,38.52
2023-05-14T04:34:00,mcc,35.78
2023-05-14T04:35:00,mcc,35.27
2023-05-14T04:36:00,mcc,34.10
2023-05-14T04:37:00,mcc,37.53
2023-05-14T04:38:00,mcc,38.45
2023-05-14T04:39:00,mcc,37.42
2023-05-14T04:40:00,mcc,39.50
2023-05-14T04:41:00,mcc,38.70
2023-05-14T04:42:00,mcc,38.56
2023-05-14T04:43:00,mcc,38.99
2023-05-14T04:44:00,mcc,34.37
2023-05-14T04:45:00,mcc,34.21
2023-05-14T04:46:00,mcc,33.98
2023-05-14T04:47:00,mcc,33.07
2023-05-14T04:48:00,mcc,32.14
2023-05-14T04:49:00,mcc,34.46
2023-05-14T04:50:00,mcc,35.71
2023-05-14T04:51:00,mcc,37.73
2023-05-14T04:52:00,mcc,39.44
2023-05-14T04:53:00,mcc,40.57
2023-05-14T04:54:00,mcc,38.73
2023-05-14T04:55:00,mcc,38.27
2023-05-14T04:56:00,mcc,37.89
2023-05-14T04:57:00,mcc,38.36
2023-05-14T04:58:00,mcc,35.81
2023-05-14T04:59:00,mcc,36.94
2023-05-14T05:00:00,mcc,35.41
2023-05-14T05:01:00,mcc,37.14
2023-05-14T05:02:00,mcc,35.20
2023-05-14T05:03:00,mcc,35.36
2023-05-14T05:04:00,mcc,35.83
2023-05-14T05:05:00,mcc,37.62
2023-05-14T05:06:00,mcc,39.89
2023-05-14T05:07:00,mcc,40.95
2023-05-14T05:08:00,mcc,39.44
2023-05-14T05:09:00,mcc,42.01
2023-05-14T05:10:00,mcc,38.55
2023-05-14T05:11:00,mcc,37.60
2023-05-14T05:12:00,mcc,37.44
2023-05-14T05:13:00,mcc,37.63
2023-05-14T05:14:00,mcc,35.27
2023-05-14T05:15:00,mcc,33.62
2023-05-14T05:16:00,mcc,35.61
2023-05-14T05:17:00,mcc,36.96
2023-05-14T05:18:00,mcc,34.05
2023-05-14T05:19:00,mcc,46.29
2023-05-14T05:20:00,mcc,43.57
2023-05-14T05:21:00,mcc,45.00
2023-05-14T05:22:00,mcc,33.16
2023-05-14T05:23:00,mcc,35.05
2023-05-14T05:24:00,mcc,37.15
2023-05-14T05:25:00,mcc,38.40
2023-05-14T05:26:00,mcc,36.20
2023-05-14T05:27:00,mcc,35.63
2023-05-14T05:28:00,mcc,36.18
2023-05-14T05:29:00,mcc,38.68
2023-05-14T05:30:00,mcc,36.07
2023-05-14T05:31:00,mcc,35.87
2023-05-14T05:32:00,mcc,36.30
2023-05-14T05:33:00,mcc,37.69
2023-05-14T05:34:00,mcc,35.58
2023-05-14T05:35:00,mcc,38.11
2023-05-14T05:36:00,mcc,38.70
2023-05-14T05:37:00,mcc,39.63
2023-05-14T05:38:00,mcc,36.99
2023-05-14T05:39:00,mcc,36.72
2023-05-14T05:40:00,mcc,36.39
2023-05-14T05:41:00,mcc,39.01
2023-05-14T05:42:00,mcc,34.97
2023-05-14T05:43:00,mcc,33.76
2023-05-14T05:44:00,mcc,36.12
2023-05-14T05:45:00,mcc,38.76
2023-05-14T05:46:00,mcc,37.14
2023-05-14T05:47:00,mcc,36.13
2023-05-14T05:48:00,mcc,36.33
2023-05-14T05:49:00,mcc,37.94
2023-05-14T05:50:00,mcc,34.68
2023-05-14T05:51:00,mcc,34.66
2023-05-14T05:52:00,mcc,35.18
2023-05-14T05:53:00,mcc,38.39
2023-05-14T05:54:00,mcc,39.10
2023-05-14T05:55:00,mcc,39.44
2023-05-14T05:56:00,mcc,37.57
2023-05-14T05:57:00,mcc,39.34
2023-05-14T05:58:00,mcc,37.85
2023-05-14T05:59:00,mcc,38.29
2023-05-14T06:00:00,mcc,37.97
2023-05-14T06:01:00,mcc,39.56
2023-05-14T06:02:00,mcc,37.91
2023-05-14T06:03:00,mcc,38.10
2023-05-14T06:04:00,mcc,36.80
2023-05-14T06:05:00,mcc,40.35
2023-05-14T06:06:00,mcc,36.99
2023-05-14T06:07:00,mcc,37.34
2023-05-14T06:08:00,mcc,38.69
2023-05-14T06:09:00,mcc,41.33
2023-05-14T06:10:00,mcc,39.15
2023-05-14T06:11:00,mcc,39.88
2023-05-14T06:12:00,mcc,38.97
2023-05-14T06:13:00,mcc,49.27
2023-05-14T06:14:00,mcc,37.06
2023-05-14T06:15:00,mcc,35.13
2023-05-14T06:16:00,mcc,35.01
2023-05-14T06:17:00,mcc,36.99
2023-05-14T06:18:00,mcc,35.52
2023-05-14T06:19:00,mcc,36.47
2023-05-14T06:20:00,mcc,34.70
2023-05-14T06:21:00,mcc,36.33
2023-05-14T06:22:00,mcc,34.24
2023-05-14T06:23:00,mcc,33.63
2023-05-14T06:24:00,mcc,35.23
2023-05-14T06:25:00,mcc,38.45
2023-05-14T06:26:00,mcc,36.31
2023-05-14T06:27:00,mcc,36.87
2023-05-14T06:28:00,mcc,38.65
2023-05-14T06:29:00,mcc,41.05
2023-05-14T06:30:00,mcc,37.45
2023-05-14T06:31:00,mcc,37.08
2023-05-14T06:32:00,mcc,45.66
2023-05-14T06:33:00,mcc,39.93
2023-05-14T06:34:00,mcc,38.38
2023-05-14T06:35:00,mcc,39.08
2023-05-14T06:36:00,mcc,38.32
2023-05-14T06:37:00,mcc,40.93
2023-05-14T06:38:00,mcc,37.09
2023-05-14T06:39:00,mcc,37.16
2023-05-14T06:40:00,mcc,35.86
2023-05-14T06:41:00,mcc,36.39
2023-05-14T06:42:00,mcc,34.13
2023-05-14T06:43:00,mcc,34.97
2023-05-14T06:44:00,mcc,35.30
2023-05-14T06:45:00,mcc,37.56
2023-05-14T06:46:00,mcc,35.18
2023-05-14T06:47:00,mcc,34.82
2023-05-14T06:48:00,mcc,33.37
2023-05-14T06:49:00,mcc,38.23
2023-05-14T06:50:00,mcc,35.51
2023-05-14T06:51:00,mcc,35.51
2023-05-14T06:52:00,mcc,43.79
2023-05-14T06:53:00,mcc,37.95
2023-05-14T06:54:00,mcc,35.41
2023-05-14T06:55:00,mcc,33.89
2023-05-14T06:56:00,mcc,34.39
2023-05-14T06:57:00,mcc,35.77
2023-05-14T06:58:00,mcc,32.57
2023-05-14T06:59:00,mcc,33.31
2023-05-14T07:00:00,mcc,33.92
2023-05-14T07:01:00,mcc,39.09
2023-05-14T07:02:00,mcc,35.82
2023-05-14T07:03:00,mcc,38.47
2023-05-14T07:04:00,mcc,38.58
2023-05-14T07:05:00,mcc,40.19
2023-05-14T07:06:00,mcc,38.46
2023-05-14T07:07:00,mcc,38.73
2023-05-14T07:08:00,mcc,39.61
2023-05-14T07:09:00,mcc,41.41
2023-05-14T07:10:00,mcc,38.84
2023-05-14T07:11:00,mcc,38.46
2023-05-14T07:12:00,mcc,46.71
2023-05-14T07:13:00,mcc,38.75
2023-05-14T07:14:00,mcc,35.72
2023-05-14T07:15:00,mcc,35.81
2023-05-14T07:16:00,mcc,36.95
2023-05-14T07:17:00,mcc,40.02
2023-05-14T07:18:00,mcc,36.36
2023-05-14T07:19:00,mcc,35.90
2023-05-14T07:20:00,mcc,35.19
2023-05-14T07:21:00,mcc,35.60
2023-05-14T07:22:00,mcc,31.64
2023-05-14T07:23:00,mcc,32.29
2023-05-14T07:24:00,mcc,34.19
2023-05-14T07:25:00,mcc,34.06
2023-05-14T07:26:00,mcc,35.17
2023-05-14T07:27:00,mcc,35.16
2023-05-14T07:28:00,mcc,35.65
2023-05-14T07:29:00,mcc,37.26
2023-05-14T07:30:00,mcc,34.28
2023-05-14T07:31:00,mcc,42.07
2023-05-14T07:32:00,mcc,34.66
2023-05-14T07:33:00,mcc,37.49
2023-05-14T07:34:00,mcc,37.38
2023-05-14T07:35:00,mcc,38.67
2023-05-14T07:36:00,mcc,38.42
2023-05-14T07:37:00,mcc,40.27
2023-05-14T07:38:00,mcc,37.91
2023-05-14T07:39:00,mcc,36.34
2023-05-14T07:40:00,mcc,38.22
2023-05-14T07:41:00,mcc,39.77
2023-05-14T07:42:00,mcc,36.81
2023-05-14T07:43:00,mcc,36.49
2023-05-14T07:44:00,mcc,36.41
2023-05-14T07:45:00,mcc,37.31
2023-05-14T07:46:00,mcc,36.16
2023-05-14T07:47:00,mcc,35.70
2023-05-14T07:48:00,mcc,36.31
2023-05-14T07:49:00,mcc,36.45
2023-05-14T07:50:00,mcc,42.60
2023-05-14T07:51:00,mcc,36.44
2023-05-14T07:52:00,mcc,38.55
2023-05-14T07:53:00,mcc,37.01
2023-05-14T07:54:00,mcc,36.53
2023-05-14T07:55:00,mcc,35.16
2023-05-14T07:56:00,mcc,35.02
2023-05-14T07:57:00,mcc,37.17
2023-05-14T07:58:00,mcc,34.91
2023-05-14T07:59:00,mcc,37.02
2023-05-14T08:00:00,mcc,35.70
2023-05-14T08:01:00,mcc,38.57
2023-05-14T08:02:00,mcc,36.91
2023-05-14T08:03:00,mcc,35.83
2023-05-14T08:04:00,mcc,35.62
2023-05-14T08:05:00,mcc,37.52
2023-05-14T08:06:00,mcc,39.31
2023-05-14T08:07:00,mcc,39.05
2023-05-14T08:08:00,mcc,38.72
2023-05-14T08:09:00,mcc,37.62
2023-05-14T08:10:00,mcc,46.23
2023-05-14T08:11:00,mcc,37.61
2023-05-14T08:12:00,mcc,40.06
2023-05-14T08:13:00,mcc,38.68
2023-05-14T08:14:00,mcc,34.46
2023-05-14T08:15:00,mcc,34.37
2023-05-14T08:16:00,mcc,36.50
2023-05-14T08:17:00,mcc,34.15
2023-05-14T08:18:00,mcc,35.10
2023-05-14T08:19:00,mcc,32.78
2023-05-14T08:20:00,mcc,35.91
2023-05-14T08:21:00,mcc,36.60
2023-05-14T08:22:00,mcc,36.03
2023-05-14T08:23:00,mcc,36.03
2023-05-14T08:24:00,mcc,38.36
2023-05-14T08:25:00,mcc,35.15
2023-05-14T08:26:00,mcc,35.44
2023-05-14T08:27:00,mcc,36.07
2023-05-14T08:28:00,mcc,35.08
2023-05-14T08:29:00,mcc,38.12
2023-05-14T08:30:00,mcc,35.66
2023-05-14T08:31:00,mcc,34.10
2023-05-14T08:32:00,mcc,36.38
2023-05-14T08:33:00,mcc,33.12
2023-05-14T08:34:00,mcc,32.73
2023-05-14T08:35:00,mcc,33.80
2023-05-14T08:36:00,mcc,36.64
2023-05-14T08:37:00,mcc,35.14
2023-05-14T08:38:00,mcc,36.79
2023-05-14T08:39:00,mcc,40.47
2023-05-14T08:40:00,mcc,43.56
2023-05-14T08:41:00,mcc,39.49
2023-05-14T08:42:00,mcc,38.00
2023-05-14T08:43:00,mcc,36.91
2023-05-14T08:44:00,mcc,39.49
2023-05-14T08:45:00,mcc,37.52
2023-05-14T08:46:00,mcc,37.27
2023-05-14T08:47:00,mcc,36.54
2023-05-14T08:48:00,mcc,36.12
2023-05-14T08:49:00,mcc,32.57
2023-05-14T08:50:00,mcc,32.84
2023-05-14T08:51:00,mcc,32.27
2023-05-14T08:52:00,mcc,43.63
2023-05-14T08:53:00,mcc,43.72
2023-05-14T08:54:00,mcc,43.73
2023-05-14T08:55:00,mcc,43.35
2023-05-14T08:56:00,mcc,39.23
2023-05-14T08:57:00,mcc,34.53
2023-05-14T08:58:00,mcc,34.31
2023-05-14T08:59:00,mcc,34.04
2023-05-14T09:00:00,mcc,35.16
2023-05-14T09:01:00,mcc,35.84
2023-05-14T09:02:00,mcc,35.91
2023-05-14T09:03:00,mcc,36.35
2023-05-14T09:04:00,mcc,39.57
2023-05-14T09:05:00,mcc,37.52
2023-05-14T09:06:00,mcc,36.08
2023-05-14T09:07:00,mcc,36.01
2023-05-14T09:08:00,mcc,36.41
2023-05-14T09:09:00,mcc,35.41
2023-05-14T09:10:00,mcc,35.38
2023-05-14T09:11:00,mcc,36.60
2023-05-14T09:12:00,mcc,38.84
2023-05-14T09:13:00,mcc,37.75
2023-05-14T09:14:00,mcc,35.85
2023-05-14T09:15:00,mcc,37.82
2023-05-14T09:16:00,mcc,40.83
2023-05-14T09:17:00,mcc,36.22
2023-05-14T09:18:00,mcc,36.82
2023-05-14T09:19:00,mcc,34.80
2023-05-14T09:20:00,mcc,36.78
2023-05-14T09:21:00,mcc,34.37
2023-05-14T09:22:00,mcc,34.20
2023-05-14T09:23:00,mcc,33.15
2023-05-14T09:24:00,mcc,36.43
2023-05-14T09:25:00,mcc,34.11
2023-05-14T09:26:00,mcc,35.33
2023-05-14T09:27:00,mcc,37.13
2023-05-14T09:28:00,mcc,37.59
2023-05-14T09:29:00,mcc,35.00
2023-05-14T09:30:00,mcc,34.84
2023-05-14T09:31:00,mcc,35.10
2023-05-14T09:32:00,mcc,36.89
2023-05-14T09:33:00,mcc,35.62
2023-05-14T09:34:00,mcc,35.86
2023-05-14T09:35:00,mcc,36.24
2023-05-14T09:36:00,mcc,39.21
2023-05-14T09:37:00,mcc,35.30
2023-05-14T09:38:00,mcc,35.88
2023-05-14T09:39:00,mcc,33.08
2023-05-14T09:40:00,mcc,33.68
2023-05-14T09:41:00,mcc,44.05
2023-05-14T09:42:00,mcc,44.44
2023-05-14T09:43:00,mcc,45.01
2023-05-14T09:44:00,mcc,50.10
2023-05-14T09:45:00,mcc,37.26
2023-05-14T09:46:00,mcc,36.44
2023-05-14T09:47:00,mcc,35.48
2023-05-14T09:48:00,mcc,35.69
2023-05-14T09:49:00,mcc,31.54
2023-05-14T09:50:00,mcc,32.35
2023-05-14T09:51:00,mcc,35.88
2023-05-14T09:52:00,mcc,37.18
2023-05-14T09:53:00,mcc,34.83
2023-05-14T09:54:00,mcc,44.00
2023-05-14T09:55:00,mcc,33.93
2023-05-14T09:56:00,mcc,36.90
2023-05-14T09:57:00,mcc,34.00
2023-05-14T09:58:00,mcc,33.19
2023-05-14T09:59:00,mcc,34.84
2023-05-14T10:00:00,mcc,38.02
2023-05-14T10:01:00,mcc,36.20
2023-05-14T10:02:00,mcc,36.78
2023-05-14T10:03:00,mcc,37.72
2023-05-14T10:04:00,mcc,38.38
2023-05-14T10:05:00,mcc,36.52
2023-05-14T10:06:00,mcc,36.45
2023-05-14T10:07:00,mcc,36.22
2023-05-14T10:08:00,mcc,37.36
2023-05-14T10:09:00,mcc,35.20
2023-05-14T10:10:00,mcc,35.88
2023-05-14T10:11:00,mcc,43.53
2023-05-14T10:12:00,mcc,38.67
2023-05-14T10:13:00,mcc,35.45
2023-05-14T10:14:00,mcc,36.64
2023-05-14T10:15:00,mcc,36.26
2023-05-14T10:16:00,mcc,38.15
2023-05-14T10:17:00,mcc,38.84
2023-05-14T10:18:00,mcc,40.20
2023-05-14T10:19:00,mcc,39.31
2023-05-14T10:20:00,mcc,39.68
2023-05-14T10:21:00,mcc,38.55
2023-05-14T10:22:00,mcc,37.32
2023-05-14T10:23:00,mcc,36.83
2023-05-14T10:24:00,mcc,39.23
2023-05-14T10:25:00,mcc,35.44
2023-05-14T10:26:00,mcc,35.17
2023-05-14T10:27:00,mcc,38.56
2023-05-14T10:28:00,mcc,40.64
2023-05-14T10:29:00,mcc,36.41
2023-05-14T10:30:00,mcc,35.36
2023-05-14T10:31:00,mcc,34.31
2023-05-14T10:32:00,mcc,37.00
2023-05-14T10:33:00,mcc,35.96
2023-05-14T10:34:00,mcc,36.95
2023-05-14T10:35:00,mcc,36.60
2023-05-14T10:36:00,mcc,38.71
2023-05-14T10:37:00,mcc,35.33
2023-05-14T10:38:00,mcc,34.56
2023-05-14T10:39:00,mcc,36.03
2023-05-14T10:40:00,mcc,37.97
2023-05-14T10:41:00,mcc,36.90
2023-05-14T10:42:00,mcc,38.29
2023-05-14T10:43:00,mcc,36.91
2023-05-14T10:44:00,mcc,39.29
2023-05-14T10:45:00,mcc,36.94
2023-05-14T10:46:00,mcc,37.14
2023-05-14T10:47:00,mcc,37.16
2023-05-14T10:48:00,mcc,38.01
2023-05-14T10:49:00,mcc,37.62
2023-05-14T10:50:00,mcc,35.46
2023-05-14T10:51:00,mcc,37.71
2023-05-14T10:52:00,mcc,39.63
2023-05-14T10:53:00,mcc,38.04
2023-05-14T10:54:00,mcc,37.28
2023-05-14T10:55:00,mcc,37.80
2023-05-14T10:56:00,mcc,40.08
2023-05-14T10:57:00,mcc,38.28
2023-05-14T10:58:00,mcc,38.07
2023-05-14T10:59:00,mcc,38.87
2023-05-14T11:00:00,mcc,39.95
2023-05-14T11:01:00,mcc,38.38
2023-05-14T11:02:00,mcc,39.22
2023-05-14T11:03:00,mcc,38.34
2023-05-14T11:04:00,mcc,39.80
2023-05-14T11:05:00,mcc,37.65
2023-05-14T11:06:00,mcc,37.52
2023-05-14T11:07:00,mcc,35.91
2023-05-14T11:08:00,mcc,40.09
2023-05-14T11:09:00,mcc,39.21
2023-05-14T11:10:00,mcc,38.28
2023-05-14T11:11:00,mcc,37.37
2023-05-14T11:12:00,mcc,39.67
2023-05-14T11:13:00,mcc,40.18
2023-05-14T11:14:00,mcc,41.91
2023-05-14T11:15:00,mcc,40.59
2023-05-14T11:16:00,mcc,42.17
2023-05-14T11:17:00,mcc,40.74
2023-05-14T11:18:00,mcc,44.87
2023-05-14T11:19:00,mcc,45.51
2023-05-14T11:20:00,mcc,35.64
2023-05-14T11:21:00,mcc,34.79
2023-05-14T11:22:00,mcc,36.46
2023-05-14T11:23:00,mcc,36.50
2023-05-14T11:24:00,mcc,37.89
2023-05-14T11:25:00,mcc,38.00
2023-05-14T11:26:00,mcc,37.16
2023-05-14T11:27:00,mcc,38.07
2023-05-14T11:28:00,mcc,36.64
2023-05-14T11:29:00,mcc,36.91
2023-05-14T11:30:00,mcc,35.33
2023-05-14T11:31:00,mcc,44.86
2023-05-14T11:32:00,mcc,34.26
2023-05-14T11:33:00,mcc,34.48
2023-05-14T11:34:00,mcc,33.22
2023-05-14T11:35:00,mcc,33.14
2023-05-14T11:36:00,mcc,44.11
2023-05-14T11:37:00,mcc,32.69
2023-05-14T11:38:00,mcc,34.44
2023-05-14T11:39:00,mcc,34.14
2023-05-14T11:40:00,mcc,36.76
2023-05-14T11:41:00,mcc,35.94
2023-05-14T11:42:00,mcc,35.70
2023-05-14T11:43:00,mcc,38.00
2023-05-14T11:44:00,mcc,39.68
2023-05-14T11:45:00,mcc,37.77
2023-05-14T11:46:00,mcc,37.79
2023-05-14T11:47:00,mcc,38.37
2023-05-14T11:48:00,mcc,38.34
2023-05-14T11:49:00,mcc,41.63
2023-05-14T11:50:00,mcc,40.10
2023-05-14T11:51:00,mcc,38.81
2023-05-14T11:52:00,mcc,39.32
2023-05-14T11:53:00,mcc,40.50
2023-05-14T11:54:00,mcc,41.41
2023-05-14T11:55:00,mcc,40.37
2023-05-14T11:56:00,mcc,41.02
2023-05-14T11:57:00,mcc,43.75
2023-05-14T11:58:00,mcc,41.05
2023-05-14T11:59:00,mcc,40.22
2023-05-14T12:00:00,mcc,42.82
2023-05-14T12:01:00,mcc,43.15
2023-05-14T12:02:00,mcc,38.72
2023-05-14T12:03:00,mcc,39.10
2023-05-14T12:04:00,mcc,48.03
2023-05-14T12:05:00,mcc,41.65
2023-05-14T12:06:00,mcc,42.41
2023-05-14T12:07:00,mcc,43.90
2023-05-14T12:08:00,mcc,42.23
2023-05-14T12:09:00,mcc,40.09
2023-05-14T12:10:00,mcc,37.71
2023-05-14T12:11:00,mcc,40.14
2023-05-14T12:12:00,mcc,43.60
2023-05-14T12:13:00,mcc,41.42
2023-05-14T12:14:00,mcc,41.50
2023-05-14T12:15:00,mcc,40.60
2023-05-14T12:16:00,mcc,43.58
2023-05-14T12:17:00,mcc,40.58
2023-05-14T12:18:00,mcc,39.95
2023-05-14T12:19:00,mcc,38.38
2023-05-14T12:20:00,mcc,36.44
2023-05-14T12:21:00,mcc,50.00
2023-05-14T12:22:00,mcc,39.18
2023-05-14T12:23:00,mcc,39.97
2023-05-14T12:24:00,mcc,44.15
2023-05-14T12:25:00,mcc,41.74
2023-05-14T12:26:00,mcc,44.72
2023-05-14T12:27:00,mcc,44.25
2023-05-14T12:28:00,mcc,42.48
2023-05-14T12:29:00,mcc,45.27
2023-05-14T12:30:00,mcc,49.80
2023-05-14T12:31:00,mcc,41.00
2023-05-14T12:32:00,mcc,44.11
2023-05-14T12:33:00,mcc,41.96
2023-05-14T12:34:00,mcc,40.64
2023-05-14T12:35:00,mcc,40.30
2023-05-14T12:36:00,mcc,42.62
2023-05-14T12:37:00,mcc,39.37
2023-05-14T12:38:00,mcc,39.37
2023-05-14T12:39:00,mcc,41.61
2023-05-14T12:40:00,mcc,42.07
2023-05-14T12:41:00,mcc,41.59
2023-05-14T12:42:00,mcc,42.28
2023-05-14T12:43:00,mcc,41.58
2023-05-14T12:44:00,mcc,41.97
2023-05-14T12:45:00,mcc,39.38
2023-05-14T12:46:00,mcc,42.45
2023-05-14T12:47:00,mcc,47.78
2023-05-14T12:48:00,mcc,42.37
2023-05-14T12:49:00,mcc,54.93
2023-05-14T12:50:00,mcc,44.01
2023-05-14T12:51:00,mcc,42.91
2023-05-14T12:52:00,mcc,42.15
2023-05-14T12:53:00,mcc,44.69
2023-05-14T12:54:00,mcc,42.31
2023-05-14T12:55:00,mcc,40.97
2023-05-14T12:56:00,mcc,52.97
2023-05-14T12:57:00,mcc,45.06
2023-05-14T12:58:00,mcc,41.95
2023-05-14T12:59:00,mcc,43.06
2023-05-14T13:00:00,mcc,46.45
2023-05-14T13:01:00,mcc,44.49
2023-05-14T13:02:00,mcc,56.84
2023-05-14T13:03:00,mcc,46.17
2023-05-14T13:04:00,mcc,49.50
2023-05-14T13:05:00,mcc,45.53
2023-05-14T13:06:00,mcc,52.18
2023-05-14T13:07:00,mcc,44.43
2023-05-14T13:08:00,mcc,42.23
2023-05-14T13:09:00,mcc,43.68
2023-05-14T13:10:00,mcc,44.76
2023-05-14T13:11:00,mcc,43.42
2023-05-14T13:12:00,mcc,45.96
2023-05-14T13:13:00,mcc,46.36
2023-05-14T13:14:00,mcc,43.04
2023-05-14T13:15:00,mcc,43.28
2023-05-14T13:16:00,mcc,44.91
2023-05-14T13:17:00,mcc,47.11
2023-05-14T13:18:00,mcc,45.68